CDT,Max TemperatureF,Mean TemperatureF,Min TemperatureF,Max Dew PointF,MeanDew PointF,Min DewpointF,Max Humidity, Mean Humidity, Min Humidity, Max Sea Level PressureIn, Mean Sea Level PressureIn, Min Sea Level PressureIn, Max VisibilityMiles, Mean VisibilityMiles, Min VisibilityMiles, Max Wind SpeedMPH, Mean Wind SpeedMPH, Max Gust SpeedMPH,PrecipitationIn, CloudCover, Events, WindDirDegrees
2012-3-1,33,30,28,28,27,24,92,83,75,29.82,29.76,29.63,10,9,5,14,7,,0.00,8,,276
2012-3-2,34,28,23,28,24,19,93,83,73,29.81,29.64,29.49,10,6,0,15,4,24,0.00,5,Fog,332
2012-3-3,28,26,23,23,21,18,86,80,74,29.81,29.62,29.46,10,4,0,17,12,24,0.00,8,Fog-Snow,282
2012-3-4,25,21,16,18,14,12,86,76,60,30.09,29.86,29.75,10,6,1,10,6,,0.00,8,Snow,30
2012-3-5,30,21,12,21,16,10,88,73,54,30.27,30.17,30.08,10,9,2,20,7,25,0.00,4,Snow,210
2012-3-6,54,40,25,39,29,19,81,68,50,30.04,29.80,29.68,10,10,8,15,11,24,0.00,0,,172
2012-3-7,54,44,34,49,40,30,93,78,63,29.80,29.67,29.58,10,8,2,17,12,28,0.03,7,Rain,232
2012-3-8,34,30,24,29,20,10,82,67,48,30.24,30.04,29.81,10,9,2,31,17,47,0.00,5,Snow,292
2012-3-9,28,22,16,10,7,2,65,51,32,30.59,30.47,30.27,10,10,10,23,15,38,0.00,1,,328
2012-3-10,62,44,27,28,22,8,56,42,25,30.35,30.08,29.96,10,10,10,22,14,31,0.00,0,,206
2012-3-11,64,52,39,39,29,24,76,45,23,30.10,30.02,29.87,10,10,7,15,8,23,0.01,1,Rain,187
2012-3-12,54,50,46,48,44,37,100,86,69,29.87,29.74,29.65,10,7,0,16,10,23,0.20,8,Fog-Rain,198
2012-3-13,61,49,37,43,32,23,82,58,25,30.06,29.97,29.77,10,10,8,14,9,23,0.00,1,,274
2012-3-14,75,57,39,55,45,29,93,64,48,29.97,29.86,29.77,10,10,7,17,7,,0.00,1,,187
2012-3-15,69,58,48,50,46,37,100,80,49,30.04,29.94,29.88,10,5,0,12,3,,0.00,2,Fog,61
2012-3-16,75,56,39,56,47,35,86,70,51,30.05,29.98,29.91,10,10,9,16,7,,0.00,1,,129
2012-3-17,80,66,53,60,54,51,93,70,40,29.93,29.89,29.84,10,10,7,17,9,28,0.00,1,,185
2012-3-18,79,66,53,57,54,50,90,68,43,29.93,29.87,29.83,10,10,10,20,10,25,0.00,1,,174
2012-3-19,73,64,57,62,57,53,90,76,57,29.91,29.85,29.80,10,10,3,18,10,29,0.03,2,Rain-Thunderstorm,161
2012-3-20,73,65,57,59,56,54,96,78,52,29.96,29.88,29.81,10,9,2,17,6,25,0.07,5,Rain,150
2012-3-21,72,66,60,56,52,48,78,65,53,30.08,30.02,29.96,10,10,10,14,7,20,0.00,2,,239
2012-3-22,72,64,57,58,55,53,93,79,57,30.11,30.07,30.03,10,9,6,17,8,25,0.06,6,Rain,92
2012-3-23,61,57,53,57,55,52,100,93,82,30.06,29.95,29.87,10,5,2,12,7,,0.12,8,Rain,86
2012-3-24,62,58,53,55,54,50,97,88,78,29.99,29.91,29.86,10,6,2,10,6,,0.00,8,,12
2012-3-25,61,51,39,50,39,21,96,66,32,30.27,30.09,29.99,10,9,6,17,7,30,0.00,1,,352
2012-3-26,42,36,30,27,23,19,72,59,47,30.44,30.33,30.14,10,10,10,22,15,28,0.00,7,Rain,109
2012-3-27,73,55,37,51,35,25,67,57,31,30.15,29.83,29.58,10,10,10,25,17,41,0.00,5,,185
2012-3-28,53,46,37,39,34,29,73,64,50,30.10,29.89,29.71,10,10,10,21,15,30,0.00,5,,313
2012-3-29,51,40,30,32,29,26,85,66,46,30.18,30.10,29.96,10,10,10,17,8,24,0.00,1,,105
2012-3-30,39,36,33,36,33,27,100,90,75,29.98,29.88,29.82,10,6,2,14,9,,0.14,8,Rain,95
2012-3-31,39,37,35,39,35,33,100,92,86,30.00,29.92,29.77,8,4,2,13,8,18,0.00,8,,145